Location: Betra
(48.4113°N, 8.6634°E)
Time: 16:39:53
(UTC+00:00)

Resurs 1-4 Rocket - Pass Details

Date: 12 August 2024
Orbit: 798 x 813 km, 98.7° (Epoch: 06 September)

Event Time Altitude Azimuth Distance (km) Brightness Sun altitude
Rises 03:24:03 0° 2° (N) 3,346 5.9 -8.3°
Reaches altitude 10° 03:27:22 10° 340° (NNW) 2,407 4.8 -7.9°
Maximum altitude 03:30:18 15° 307° (NW) 2,053 4.0 -7.4°
Drops below altitude 10° 03:33:14 10° 273° (W) 2,394 4.1 -7.0°
Enters shadow 03:34:39 - 261° (W) 2,747 4.3 -6.8°
